User: anonymous   Login
Location: Unspecified
(0.0000°N, 0.0000°E)
Time: 19:09:08
(UTC+00:00)
Language:

FORMOSAT 3C - Orbit

View from above orbital plane
View from above orbital plane
View from above satellite
View from above satellite

Ground track
Ground track

The orbit data is extracted from the following two-line orbital elements,

1 29049U 06011C   19340.90769159 +.00000056 +00000-0 +38178-4 0  9997
2 29049 072.0204 226.7007 0034337 018.7367 341.5024 14.28751119711958
Epoch (UTC): 06 December 2019 21:47:04
Eccentricity: 0.0034337
inclination: 72.0204°
perigee height: 771 km
apogee height: 820 km
right ascension of ascending node: 226.7007°
argument of perigee: 18.7367°
revolutions per day: 14.28751119
mean anomaly at epoch: 341.5024°
orbit number at epoch: 71195

The dashed part of the orbit path shows where the satellite is in the earth's shadow,  

DLR